| time (UTC) | temp C | wind direction | speed KPH | gust KPH | rain 1hr cm | rain 24hr cm | rain mn cm | humidity % | barometer mb |
| 20260506214549 | 2 | 165 | 0.0 | 4.8 | 0.03 | 1.24 | 1.19 | 70 | 1021.4 |
| 20260506213102 | 2 | 360 | 1.6 | 8.0 | 0.08 | 1.24 | 1.19 | 67 | 1021.7 |
| 20260506211541 | 2 | 189 | 3.2 | 8.0 | 0.15 | 1.24 | 1.19 | 70 | 1021.8 |
| 20260506210052 | 1 | 90 | 1.6 | 4.8 | 0.23 | 1.24 | 1.19 | 72 | 1021.9 |
| 20260506204538 | 1 | 115 | 0.0 | 4.8 | 0.28 | 1.27 | 1.17 | 75 | 1022.0 |
| 20260506203036 | 1 | 116 | 1.6 | 4.8 | 0.30 | 1.22 | 1.12 | 76 | 1022.2 |
| 20260506201539 | 1 | 360 | 0.0 | 3.2 | 0.36 | 1.14 | 1.04 | 78 | 1022.4 |
| 20260506200031 | 1 | 83 | 0.0 | 3.2 | 0.46 | 1.07 | 0.97 | 79 | 1022.3 |
| 20260506194530 | 1 | 360 | 0.0 | 3.2 | 0.53 | 0.99 | 0.89 | 79 | 1022.4 |
| 20260506193028 | 1 | 360 | 0.0 | 3.2 | 0.51 | 0.91 | 0.81 | 80 | 1022.4 |
| 20260506191527 | 0 | 360 | 0.0 | 4.8 | 0.43 | 0.79 | 0.69 | 83 | 1022.5 |
| 20260506190029 | 0 | 107 | 0.0 | 4.8 | 0.28 | 0.61 | 0.51 | 84 | 1022.6 |
| 20260506184525 | 0 | 117 | 0.0 | 6.4 | 0.18 | 0.48 | 0.36 | 87 | 1022.8 |
| 20260506183020 | 0 | 73 | 1.6 | 4.8 | 0.15 | 0.43 | 0.30 | 87 | 1022.9 |
| 20260506181518 | 0 | 22 | 0.0 | 3.2 | 0.13 | 0.38 | 0.25 | 90 | 1023.0 |
| 20260506180021 | 0 | 346 | 0.0 | 4.8 | 0.10 | 0.36 | 0.23 | 92 | 1023.0 |
| 20260506174522 | 0 | 330 | 0.0 | 1.6 | 0.08 | 0.30 | 0.18 | 93 | 1023.0 |
| 20260506173009 | 0 | 360 | 0.0 | 3.2 | 0.05 | 0.28 | 0.15 | 93 | 1022.9 |
| 20260506171508 | 0 | 306 | 0.0 | 3.2 | 0.05 | 0.25 | 0.13 | 93 | 1022.9 |
| 20260506170004 | 0 | 360 | 0.0 | 6.4 | 0.08 | 0.25 | 0.13 | 93 | 1022.8 |
| 20260506164503 | 0 | 307 | 0.0 | 8.0 | 0.05 | 0.25 | 0.10 | 93 | 1022.6 |
| 20260506163108 | 0 | 327 | 0.0 | 0.0 | 0.05 | 0.25 | 0.10 | 94 | 1022.2 |
| 20260506161558 | 0 | 325 | 0.0 | 0.0 | 0.05 | 0.23 | 0.08 | 94 | 1021.9 |
| 20260506160108 | 0 | 325 | 0.0 | 0.0 | 0.03 | 0.20 | 0.05 | 93 | 1021.7 |
| 20260506154555 | 0 | 360 | 0.0 | 0.0 | 0.03 | 0.23 | 0.05 | 94 | 1021.8 |
| 20260506153055 | 0 | 325 | 0.0 | 0.0 | 0.05 | 0.23 | 0.05 | 94 | 1021.7 |
| 20260506151552 | 0 | 360 | 0.0 | 0.0 | 0.03 | 0.20 | 0.03 | 94 | 1021.5 |
| 20260506150054 | 0 | 360 | 0.0 | 0.0 | 0.03 | 0.20 | 0.03 | 94 | 1021.4 |
| 20260506144559 | 0 | 360 | 0.0 | 0.0 | 0.03 | 0.30 | 0.03 | 94 | 1021.2 |
| 20260506143048 | 0 | 360 | 0.0 | 0.0 | 0.00 | 0.28 | 0.00 | 94 | 1021.2 |
| 20260506141547 | -1 | 360 | 0.0 | 0.0 | 0.00 | 0.28 | 0.00 | 94 | 1020.9 |
| 20260506140044 | -1 | 360 | 0.0 | 0.0 | 0.00 | 0.28 | 0.00 | 93 | 1020.9 |
| 20260506134543 | -1 | 326 | 0.0 | 0.0 | 0.00 | 0.33 | 0.00 | 93 | 1020.9 |
| 20260506133040 | -1 | 360 | 0.0 | 0.0 | 0.00 | 0.33 | 0.00 | 94 | 1020.6 |
| 20260506131543 | 0 | 360 | 0.0 | 0.0 | 0.00 | 0.33 | 0.00 | 94 | 1020.4 |
| 20260506130035 | 0 | 360 | 0.0 | 0.0 | 0.00 | 0.33 | 0.00 | 94 | 1019.9 |
| 20260506124535 | 0 | 360 | 0.0 | 0.0 | 0.00 | 0.33 | 0.00 | 94 | 1019.7 |
| 20260506123032 | -1 | 360 | 0.0 | 0.0 | 0.00 | 0.33 | 0.00 | 94 | 1019.4 |
| 20260506121530 | -1 | 360 | 0.0 | 0.0 | 0.00 | 0.33 | 0.00 | 93 | 1019.5 |
| 20260506120030 | -1 | 360 | 0.0 | 0.0 | 0.00 | 0.33 | 0.00 | 94 | 1019.1 |
| 20260506114536 | -1 | 360 | 0.0 | 0.0 | 0.00 | 0.36 | 0.00 | 93 | 1019.2 |
| 20260506113027 | -1 | 360 | 0.0 | 0.0 | 0.00 | 0.36 | 0.00 | 93 | 1019.0 |
| 20260506111525 | -1 | 360 | 0.0 | 0.0 | 0.00 | 0.36 | 0.00 | 93 | 1018.8 |
| 20260506110024 | -1 | 326 | 0.0 | 0.0 | 0.00 | 0.36 | 0.00 | 94 | 1018.5 |
| 20260506104522 | -1 | 326 | 0.0 | 0.0 | 0.00 | 0.41 | 0.00 | 93 | 1018.4 |
| 20260506103023 | -1 | 325 | 0.0 | 0.0 | 0.00 | 0.41 | 0.00 | 94 | 1018.4 |
| 20260506101520 | -1 | 326 | 0.0 | 0.0 | 0.00 | 0.41 | 0.00 | 93 | 1018.4 |
| 20260506100120 | -1 | 360 | 0.0 | 0.0 | 0.00 | 0.41 | 0.00 | 93 | 1018.5 |
| 20260506094519 | -1 | 325 | 0.0 | 0.0 | 0.00 | 0.58 | 0.00 | 93 | 1018.7 |
| 20260506093016 | -1 | 327 | 0.0 | 0.0 | 0.00 | 0.58 | 0.00 | 93 | 1018.3 |
| 20260506091518 | -1 | 360 | 0.0 | 0.0 | 0.00 | 0.58 | 0.00 | 93 | 1018.2 |
| 20260506084511 | 0 | 360 | 0.0 | 0.0 | 0.00 | 0.61 | 0.00 | 93 | 1018.1 |
| 20260506083010 | 0 | 360 | 0.0 | 0.0 | 0.00 | 0.61 | 0.00 | 93 | 1018.1 |
| 20260506081511 | 0 | 308 | 0.0 | 0.0 | 0.00 | 0.61 | 0.00 | 93 | 1017.9 |
| 20260506073005 | 0 | 311 | 0.0 | 0.0 | 0.00 | 0.61 | 0.00 | 93 | 1017.9 |
| 20260506071502 | 0 | 360 | 0.0 | 0.0 | 0.00 | 0.61 | 0.00 | 93 | 1017.8 |
| 20260506061556 | 0 | 310 | 0.0 | 0.0 | 0.00 | 0.61 | 0.00 | 93 | 1017.1 |
| 20260506044549 | 0 | 312 | 0.0 | 0.0 | 0.00 | 0.61 | 0.61 | 93 | 1016.1 |
| 20260506043048 | 0 | 312 | 0.0 | 0.0 | 0.03 | 0.61 | 0.61 | 93 | 1016.2 |
| 20260506041553 | 0 | 312 | 0.0 | 0.0 | 0.03 | 0.61 | 0.61 | 93 | 1016.3 |
| 20260506040044 | 0 | 312 | 0.0 | 0.0 | 0.03 | 0.61 | 0.61 | 93 | 1015.8 |
| 20260506034544 | 0 | 312 | 0.0 | 0.0 | 0.03 | 0.79 | 0.61 | 93 | 1015.9 |
| 20260506033042 | 0 | 312 | 0.0 | 0.0 | 0.00 | 0.76 | 0.58 | 93 | 1015.7 |
| 20260506031540 | 0 | 312 | 0.0 | 3.2 | 0.00 | 0.76 | 0.58 | 93 | 1015.4 |
| 20260506030056 | 0 | 302 | 0.0 | 3.2 | 0.00 | 0.76 | 0.58 | 93 | 1014.8 |
| 20260506024549 | 0 | 301 | 0.0 | 1.6 | 0.00 | 0.94 | 0.58 | 93 | 1014.6 |
| 20260506023034 | 0 | 302 | 0.0 | 3.2 | 0.00 | 0.94 | 0.58 | 93 | 1014.1 |
| 20260506021532 | 0 | 300 | 0.0 | 1.6 | 0.00 | 0.94 | 0.58 | 93 | 1013.9 |
| 20260506020029 | 0 | 299 | 0.0 | 4.8 | 0.00 | 0.94 | 0.58 | 93 | 1013.4 |
| 20260506014528 | 0 | 360 | 0.0 | 4.8 | 0.00 | 0.94 | 0.58 | 92 | 1013.2 |
| 20260506013026 | 0 | 300 | 0.0 | 3.2 | 0.00 | 0.94 | 0.58 | 92 | 1012.8 |
| 20260506011533 | 0 | 288 | 0.0 | 6.4 | 0.00 | 0.94 | 0.58 | 93 | 1012.8 |
| 20260506010023 | 0 | 299 | 0.0 | 3.2 | 0.00 | 0.94 | 0.58 | 93 | 1012.5 |
| 20260506004540 | 0 | 298 | 0.0 | 6.4 | 0.00 | 0.94 | 0.58 | 92 | 1012.4 |
| 20260506003028 | 0 | 298 | 0.0 | 0.0 | 0.00 | 0.94 | 0.58 | 92 | 1012.3 |
| 20260506001522 | 0 | 303 | 0.0 | 0.0 | 0.00 | 0.94 | 0.58 | 92 | 1012.3 |
| 20260506000022 | 0 | 298 | 0.0 | 0.0 | 0.00 | 0.94 | 0.58 | 92 | 1012.0 |
| 20260505234516 | 0 | 297 | 0.0 | 0.0 | 0.00 | 0.94 | 0.58 | 92 | 1011.8 |
| 20260505233014 | 0 | 360 | 0.0 | 1.6 | 0.00 | 0.94 | 0.58 | 92 | 1011.2 |
| 20260505231520 | 0 | 316 | 0.0 | 3.2 | 0.00 | 0.94 | 0.58 | 92 | 1011.4 |
| 20260505230014 | 0 | 302 | 0.0 | 3.2 | 0.00 | 0.94 | 0.58 | 92 | 1011.3 |
| 20260505224511 | 0 | 290 | 0.0 | 3.2 | 0.00 | 0.94 | 0.58 | 92 | 1011.4 |
| 20260505223008 | 0 | 279 | 0.0 | 3.2 | 0.00 | 0.94 | 0.58 | 91 | 1010.9 |
| 20260505221506 | 0 | 360 | 0.0 | 3.2 | 0.00 | 0.94 | 0.58 | 92 | 1010.1 |
| 20260505220008 | 1 | 291 | 0.0 | 4.8 | 0.03 | 0.94 | 0.58 | 92 | 1010.3 |